sat.trackr.live / text

‹ back to catalog

ONEWEB-0718

NORAD 56081 · 2023-043AM

PAYLOAD ACTIVE UNKNOWN

§ Identity

Operator
Country
UK
Launch date
2023-03-26
Launch site
SRILR
Launch vehicle
Mass (kg)
RCS (m²)

Purposes: comms

External: N2YO · Heavens-Above · Gunter

§ Orbital elements

Epoch: 2026-05-24T20:12:36.487872Z

Period
109.46 min
Inclination
87.8988°
Eccentricity
0.0001841
Mean motion
13.15549361 rev/d
Perigee alt
1,200.4 km
Apogee alt
1,203.2 km
Semi-major
7,579.9 km
B*
2.2158e-5
RAAN
263.8536°
Arg perigee
116.3461°
Mean anomaly
243.7859°
Rev number
15,336

§ Raw data

ONEWEB-07181 56081U 23043AM  26144.84208898  .00000021  00000+0  22158-4 0  99902 56081  87.8988 263.8536 0001841 116.3461 243.7859 13.15549361153363

JSON: /api/v1/satellites/56081 · /tle

For live sub-satellite position, see the globe view (requires WebGL).

§ Visibility from observer

Set your observer location to see the next 7 days of passes ≥ 10°. The values pass through the URL so the page stays shareable.

No JS? Fill the form by hand. The geolocation button needs JavaScript.